Probability
0 0 0 0 0 0 0 0 0 0 0 0 0 0 0 0 0 0 0 0 0 0 0 0 0 0 0 0 0 0 0 0 0 0 0 0 0 0 0 0 0 0 0
0 0 0 0 0 0 0 0 0 0 0 0 0 0 0 0 0 0 0 0 0 0 0 0 0 0 0 0 0 0 0 0 0 0 0 0 0 0 0 0 0 0 0
0 0 0 0 0 0 0 0 0 0 0 0 0 0 0 0 0 0 0 0 0 0 0 0 0 0 0 0 0 0 0 0 0 0 0 0 0 0 0 0 0 0 0
0 0 0 0 0 0 0 0 0 0 0 0 0 0 0 0 0 0 0 0 0 0 0 0 0 0 0 0 0 0 0 0 0 0 0 0 0 0 0 0 0 0 0
0 0 0 0 0 0 0 0 0 0 0 0 0 0 0 0 0 0 0 0 0 0 0 0 0 0 0 0 0 0 0 0 0 0 0 0 0 0 0 0 0 0 0
0 0 0 0 0 0 0 0 0 0 0 0 0 0 0 0 0 0 0 0 0 0 0 0 0 0 0 0 0 0 0 0 0 0 0 0 0 0 0 0 0 0 0
0 0 0 0 0 0 0 0 0 0 0 0 0 0 0 0 0 0 0 0 0 0 0 0 0 0 0 0 0 0 0 0 0 0 0 0 0 0 0 0 0 0 0
0 0 0 0 0 0 0 0 0 0 0 0 0 0 0 0 0 0 0 0 0 0 0 0 0 0 0 0 0 0 0 0 0 0 0 0 0 0 0 0 0 0 0
0 0 0 0 0 0 0 0 0 0 0 0 0 0 0 0 0 0 0 0 0 0 0 0 0 0 0 0 0 0 0 0 0 0 0 0 0 0 0 0 0 0 0
0 0 0 0 0 0 0 0 0 0 0 0 0 0 0 0 0 0 0 0 0 0 0 0 0 0 0 0 0 0 0 0 0 0 0 0 0 0 0 0 0 0 0
0 0 0 0 0 0 0 0 0 0 0 0 0 0 0 0 0 0 0 0 0 0 0 0 0 0 0 0 0 0 0 0 0 0 0 0 0 0 0 0 0 0 0
1 0 0 0 0 0 0 0 0 0 0 0 0 0 0 0 0 0 0 0 0 0 0 0 0 0 0 0 0 0 0 0 0 0 0 0 0 0 0 0 0 0 0
2 1 0 0 0 0 0 0 0 0 0 0 0 0 0 0 0 0 0 0 0 0 0 0 0 0 0 0 0 0 0 0 0 0 0 0 0 0 0 0 0 0 0
2 1 0 0 0 0 0 0 0 0 0 0 0 0 0 0 0 0 0 0 0 0 0 0 0 0 0 0 0 0 0 0 0 0 0 0 0 0 0 0 0 0 0
1 0 0 0 0 0 0 0 0 0 0 0 0 0 0 0 0 0 0 0 0 0 0 0 0 0 0 0 0 0 0 0 0 0 0 0 0 0 0 0 0 0 0
0 0 0 0 0 0 0 0 0 0 0 0 0 0 0 0 0 0 0 0 0 0 0 0 0 0 0 0 0 0 0 0 0 0 0 0 0 0 0 0 0 0 0
0 0 0 0 0 0 0 0 0 0 0 0 0 0 0 0 0 0 0 0 0 0 0 0 0 0 0 0 0 0 0 0 0 0 0 0 0 0 0 0 0 0 0
0 0 0 0 0 0 0 0 0 0 0 0 0 0 0 0 0 0 0 0 0 0 0 0 0 0 0 0 0 0 0 0 0 0 0 0 0 0 0 0 0 0 0
0 0 0 0 0 0 0 0 0 0 0 0 0 0 0 0 0 0 0 0 0 0 0 0 0 0 0 0 0 0 0 0 0 0 0 0 0 0 0 0 0 0 0
0 0 0 0 0 0 0 0 0 0 0 0 0 0 0 0 0 0 0 0 0 0 0 0 0 0 0 0 0 0 0 0 0 0 0 0 0 0 0 0 0 0 0
0 0 0 0 0 0 0 0 0 0 0 0 0 0 0 0 0 0 0 0 0 0 0 0 0 0 0 0 0 0 0 0 0 0 0 0 0 0 0 0 0 0 0
0 0 0 0 0 0 0 0 0 0 0 0 0 0 0 0 0 0 0 0 0 0 0 0 0 0 0 0 0 0 0 0 0 0 0 0 0 0 0 0 0 0 0
0 0 0 0 0 0 0 0 0 0 0 0 0 0 0 0 0 0 0 0 0 0 0 0 0 0 0 0 0 0 0 0 0 0 0 0 0 0 0 0 0 0 0
0 0 0 0 0 0 0 0 0 0 0 0 0 0 0 0 0 0 0 0 0 0 0 0 0 0 0 0 0 0 0 0 0 0 0 0 0 0 0 0 0 0 0
0 0 0 0 0 0 0 0 0 0 0 0 0 0 0 0 0 0 0 0 0 0 0 0 0 0 0 0 0 0 0 0 0 0 0 0 0 0 0 0 0 0 0
0 0 0 0 0 0 0 0 0 0 0 0 0 0 0 0 0 0 0 0 0 0 0 0 0 0 0 0 0 0 0 0 0 0 0 0 0 0 0 0 0 0 0
Wind_Speed
5 4 3 3 3 3 3 3 4 4 4 4 3 4 4 4 4 4 3 10 11 11 10 9 9 9 8 8 8 8 9 9 9 9 10 10 11 11 11 12 12 12 12
6 5 5 4 4 4 4 4 4 4 3 3 4 3 4 3 4 4 4 6 10 10 9 9 9 9 9 8 8 8 8 8 8 9 9 10 10 10 11 11 11 12 11
7 7 6 5 4 5 5 5 5 4 4 3 4 3 3 3 3 4 4 3 4 6 8 9 9 9 9 9 9 8 7 7 7 7 8 9 9 10 10 11 11 12 12
9 8 7 6 6 5 5 5 5 4 3 3 3 2 2 2 3 3 3 3 3 3 4 8 8 8 8 8 9 8 7 6 6 6 7 7 8 9 10 11 11 12 12
11 9 7 7 8 6 5 6 3 3 3 3 3 3 2 2 2 2 2 2 2 2 2 4 7 7 7 7 8 8 7 6 5 6 6 7 8 9 10 11 12 12 13
12 10 7 9 9 7 5 5 4 3 3 4 4 3 2 1 1 1 2 1 1 2 2 3 3 4 7 6 7 8 7 7 6 6 7 8 8 9 10 11 12 13 14
12 11 8 9 9 9 9 8 5 4 3 3 4 2 2 2 2 1 1 1 1 2 2 2 2 2 3 6 7 8 8 8 8 8 8 9 10 11 12 13 14 15 15
13 12 12 11 10 8 9 8 6 5 3 3 4 4 2 1 1 1 1 2 2 2 2 2 2 2 2 2 5 8 8 9 9 10 11 12 12 13 14 15 16 16 17
14 13 14 13 12 11 11 10 9 9 5 3 2 5 5 5 2 0 1 1 2 2 2 2 2 2 2 2 2 5 7 8 10 11 13 14 15 16 17 18 18 18 18
15 15 14 14 14 11 12 11 9 6 7 5 2 1 2 4 5 2 1 1 1 2 2 1 1 2 2 2 4 7 9 9 11 13 15 16 17 19 19 20 20 20 19
13 14 14 13 14 11 12 12 10 8 6 7 6 4 3 2 2 4 3 2 1 2 2 2 2 2 2 2 2 6 10 11 13 15 17 19 20 21 22 22 22 21 21
8 12 13 13 12 11 12 12 11 11 6 7 6 5 5 4 4 4 4 3 2 2 1 1 3 3 2 2 3 9 11 13 15 17 19 21 22 22 22 22 22 22 22
9 14 13 12 11 10 10 10 10 10 9 10 7 4 4 3 3 4 4 3 1 1 2 1 2 3 2 1 2 10 10 14 16 19 21 22 22 21 21 22 22 22 22
12 13 13 12 11 10 10 9 8 7 7 8 7 6 5 4 3 3 4 4 2 1 2 4 1 2 2 1 5 10 5 14 18 20 21 21 21 21 21 22 22 22 23
7 10 11 10 10 10 11 11 8 8 9 7 7 7 5 3 3 3 3 4 5 3 3 3 2 2 2 2 6 3 3 12 18 19 20 21 21 21 22 22 23 23 23
7 10 11 11 11 10 11 10 9 9 10 8 6 7 5 3 3 2 2 2 3 4 4 3 4 3 3 4 8 4 5 17 18 19 20 21 22 22 23 23 23 23 24
8 10 11 11 12 12 11 11 10 11 11 9 8 7 5 4 3 2 2 2 2 3 4 3 2 2 3 5 6 5 6 6 8 18 21 22 22 22 22 23 23 23 24
8 10 10 11 11 12 11 12 13 11 11 10 8 6 5 3 3 2 2 3 3 3 4 5 3 3 5 5 5 6 7 8 6 17 22 22 22 22 22 22 22 23 24
10 10 11 11 12 12 12 12 12 12 10 9 7 6 5 4 3 2 3 3 3 3 4 4 4 3 4 4 4 6 7 7 9 13 18 19 20 21 21 22 23 25 25
10 11 11 11 12 13 13 13 13 12 11 9 7 6 5 3 2 3 3 4 3 3 3 4 4 4 4 5 4 5 7 5 7 9 13 14 17 20 22 25 25 26 26
12 12 13 13 13 11 11 13 13 12 11 9 7 5 4 2 3 3 3 4 4 4 3 3 4 3 4 4 5 5 8 7 8 8 6 6 8 9 12 18 22 24 25
13 13 13 13 13 11 19 19 14 10 9 8 6 4 3 3 2 2 5 5 6 4 4 3 3 5 6 6 6 7 8 9 7 3 4 8 7 10 9 7 19 26 26
13 13 13 13 14 16 20 18 16 9 8 6 5 4 2 2 2 2 5 8 8 11 10 5 5 6 7 7 7 9 9 9 10 7 8 13 8 11 9 11 23 26 28
11 11 12 12 12 14 18 17 15 9 7 6 4 3 2 1 3 5 5 4 4 5 8 6 6 8 8 8 9 9 9 8 8 7 6 10 10 11 11 8 20 26 28
11 10 9 10 10 11 15 14 11 6 5 4 2 1 1 3 8 9 4 3 5 5 10 14 15 14 17 19 15 7 5 6 10 8 4 6 6 7 10 10 13 21 23
10 9 9 8 8 7 10 11 9 4 4 2 1 1 4 6 9 10 4 3 5 5 6 7 7 10 10 12 15 6 4 6 8 7 4 4 5 5 9 6 6 7 11
Wind_Direction
165 160 154 141 134 128 128 124 116 108 97 88 90 105 103 90 78 63 65 89 91 92 90 84 77 69 63 58 55 50 44 37 32 28 26 26 23 19 16 13 9 4 360
171 169 167 158 152 146 140 133 129 119 105 100 94 103 112 103 91 82 66 82 94 96 94 88 78 68 59 51 47 46 42 34 29 26 23 21 19 16 11 7 4 359 354
177 176 176 173 162 145 134 122 114 106 105 99 94 104 116 115 107 95 81 65 72 85 97 94 83 69 57 46 36 31 32 27 25 21 17 15 11 7 3 0 356 351 347
181 177 180 178 159 146 143 138 131 110 107 112 107 95 112 125 120 108 89 78 63 55 78 95 81 67 53 41 30 20 15 13 13 8 6 3 0 357 355 352 347 342 337
185 181 181 172 158 152 152 148 129 129 133 131 120 93 95 131 142 127 117 98 78 72 51 74 69 56 43 32 20 10 0 353 350 349 347 344 342 342 342 341 338 333 329
187 181 175 168 161 157 156 149 133 113 122 134 110 82 60 91 121 141 152 121 94 90 77 64 49 26 21 13 4 352 343 331 327 327 325 322 321 323 326 328 327 324 321
185 181 174 168 170 172 171 156 133 128 126 143 113 86 45 49 94 109 149 149 138 120 108 90 65 40 359 358 349 335 329 320 313 311 310 308 308 310 315 316 317 316 313
185 184 177 176 177 169 163 163 147 136 134 166 142 129 129 345 321 47 112 159 151 130 124 106 74 42 10 355 334 337 330 321 312 306 303 302 302 304 306 307 309 308 307
187 187 183 177 179 176 178 177 165 151 149 170 183 151 155 198 205 312 24 118 149 139 129 115 81 46 36 27 348 341 345 331 316 308 305 304 305 304 304 304 305 304 304
190 189 183 181 181 182 181 181 173 161 144 152 154 112 126 145 150 173 267 255 185 171 164 137 105 88 75 54 28 15 6 347 330 320 315 311 308 305 303 303 303 302 301
192 189 184 184 185 184 182 178 173 168 157 154 155 149 129 81 110 144 186 223 251 220 210 189 172 147 110 73 24 4 0 345 332 322 314 308 305 303 302 302 301 300 299
191 191 187 188 188 184 181 180 178 174 166 153 151 151 152 155 171 158 160 180 213 259 258 218 183 170 155 90 14 359 352 337 325 316 310 306 303 302 302 301 300 299 297
194 195 190 190 187 185 178 171 171 173 165 157 154 146 139 137 139 137 133 145 178 299 306 259 196 186 169 120 323 346 343 328 320 313 307 304 303 303 302 299 297 295 293
202 194 190 188 182 175 170 164 162 159 151 145 141 134 130 127 126 133 139 135 142 286 292 269 241 207 201 253 311 340 330 319 313 308 305 305 304 302 298 295 294 293 291
189 181 179 175 169 164 161 157 155 149 139 129 127 120 113 109 107 112 124 140 153 196 255 260 258 234 229 250 304 307 282 306 308 308 306 303 300 298 296 294 292 291 290
170 166 167 163 157 153 152 147 140 138 127 118 115 111 101 101 112 120 134 144 156 172 223 245 242 248 260 284 298 310 292 306 309 306 301 300 299 296 294 292 291 290 289
157 160 160 155 151 149 146 141 136 132 123 115 111 115 118 124 135 147 143 155 174 173 220 255 254 260 269 277 289 290 281 277 282 297 300 299 297 295 294 293 292 290 288
147 147 145 145 144 142 140 137 132 125 121 118 115 119 129 134 155 162 168 186 198 200 210 247 254 255 255 264 268 278 289 290 281 295 298 298 298 298 296 294 292 290 289
135 136 138 139 137 133 129 125 120 114 112 114 122 132 137 142 173 178 189 203 214 219 209 229 252 247 258 264 274 275 277 278 282 289 296 298 297 296 295 295 295 294 291
126 126 124 123 123 121 119 116 112 110 108 107 109 110 113 136 185 197 207 218 222 229 225 233 252 257 259 260 261 277 291 275 282 287 286 288 290 294 294 294 292 290 288
110 112 111 110 111 111 113 114 112 112 113 110 102 97 102 133 205 208 217 220 216 225 235 245 257 265 270 274 274 276 293 293 281 271 271 269 277 277 281 284 288 286 284
101 103 107 108 105 105 112 111 110 108 109 111 108 100 106 99 57 350 305 279 245 232 228 227 246 265 275 271 274 282 291 298 295 265 275 285 276 280 277 267 280 284 284
96 98 100 102 102 108 109 105 103 101 103 105 109 108 101 66 29 311 298 295 295 293 286 277 273 270 275 275 275 280 278 279 283 285 291 289 279 279 277 277 284 285 286
95 96 97 99 102 106 105 104 106 105 106 112 120 127 132 286 293 281 255 254 261 270 279 278 255 259 264 266 261 274 283 286 279 275 266 279 284 280 281 273 281 283 284
93 93 94 96 99 104 108 113 115 113 112 116 121 139 225 266 292 298 286 258 268 271 289 294 293 294 297 302 302 299 294 297 295 291 256 261 277 284 283 274 272 278 281
89 89 86 86 95 105 121 126 123 110 114 124 159 249 293 299 299 306 295 272 280 278 278 290 296 299 294 291 297 287 269 279 288 290 251 251 277 301 296 266 251 264 274